Location: Central Falls
(41.8900°N, 71.3929°W)
Time: 06:22:40
(UTC+00:00)

Vanguard 3 - Pass Details

Date: 11 December 2023
Orbit: 508 x 3239 km, 33.4° (Epoch: 01 March)

Event Time Altitude Azimuth Distance (km) Brightness Sun altitude
Rises 03:37:01 0° 265° (W) 6,324 11.9 -67.1°
Reaches altitude 10° 03:41:58 10° 261° (W) 4,899 11.2 -67.7°
Enters shadow 03:42:07 10° 261° (W) 4,854 11.1 -67.7°
